Weather History for CWXA - June, 2013

Change the Weather History Date:

Thursday, June 27, 2013

  Actual Average Record
Temperature  
Mean Temperature 62 °F -  
Max Temperature 72 °F - - ()
Min Temperature 52 °F - - ()
Degree Days  
Heating Degree Days 3    
Growing Degree Days 12 (Base 50)    
Moisture  
Dew Point 37 °F    
Average Humidity 40    
Maximum Humidity 53    
Minimum Humidity 23    
Precipitation  
Precipitation 0.00 in - - ()
Sea Level Pressure  
Sea Level Pressure 30.08 in    
Wind  
Wind Speed 7 mph ()    
Max Wind Speed 12 mph    
Max Gust Speed 20 mph    
T = Trace of Precipitation, MM = Missing Value Source: Averaged Metar Reports

Daily Weather History Graph

Daily Weather History Graph

Search for Another Location

Airport or City:

Trip Planner

Search our weather history database for the weather conditions in past years. The results will help you decide how hot, cold, wet, or windy it might be!

Date:

Astronomy

Jun. 27, 2013 Rise Set
Actual Time 5:27 AM MDT 9:59 PM MDT
Civil Twilight 4:40 AM MDT 10:45 PM MDT
Nautical Twilight 3:29 AM MDT 11:56 PM MDT
Astronomical Twilight 2:15 AM MDT 1:11 AM MDT
Moon No Moon Rise 11:10 AM MDT (6/27)
Length of Visible Light 18h 04m
Length of Day
16h 31m
Waning Gibbous, 76% of the Moon is Illuminated
Jun 27
Waning Gibbous
Jun 29
Last Quarter
Jul 8
New
Jul 15
First Quarter
Jul 22
Full

Hourly Weather History & Observations

Time (MDT) Temp. Dew Point Humidity Pressure Visibility Wind Dir Wind Speed Gust Speed Precip Events Conditions
12:00 AM 56 °F 35 °F 33% 29.93 in - WSW 6.9 mph - -  
12:00 AM 56.5 °F 35.2 °F 45% 29.93 in - WSW 6.9 mph - N/A   Unknown
1:00 AM 56.1 °F 35.4 °F 46% 29.98 in - WSW 10.4 mph 18.4 mph N/A   Unknown
2:00 AM 56.1 °F 34.5 °F 44% 29.99 in - WSW 6.9 mph - N/A   Unknown
3:00 AM 54.5 °F 34.2 °F 46% 30.02 in - WSW 4.6 mph - N/A   Unknown
4:00 AM 54.3 °F 34.7 °F 48% 30.01 in - SW 8.1 mph - N/A   Unknown
5:00 AM 54.1 °F 34.9 °F 48% 30.04 in - WSW 5.8 mph - N/A   Unknown
6:00 AM 53 °F 36 °F 42% 30.07 in - SW 4.6 mph - -  
6:00 AM 53.1 °F 36.5 °F 53% 30.07 in - SW 4.6 mph - N/A   Unknown
7:00 AM 53.6 °F 36.9 °F 53% 30.09 in - SW 6.9 mph - N/A   Unknown
8:00 AM 56.1 °F 38.1 °F 51% 30.08 in - WSW 9.2 mph 18.4 mph N/A   Unknown
9:00 AM 60.8 °F 35.4 °F 39% 30.08 in - WSW 9.2 mph 19.6 mph N/A   Unknown
10:00 AM 63.7 °F 36.9 °F 37% 30.09 in - West 8.1 mph - N/A   Unknown
11:00 AM 65.5 °F 36.3 °F 34% 30.09 in - West 10.4 mph 17.3 mph N/A   Unknown
12:00 PM 65.3 °F 36.1 °F 34% 30.09 in - West 11.5 mph 17.3 mph N/A   Unknown
1:00 PM 64.9 °F 36.7 °F 35% 30.10 in - West 10.4 mph 19.6 mph N/A   Unknown
2:00 PM 70.9 °F 37.9 °F 30% 30.08 in - West 9.2 mph 19.6 mph N/A   Unknown
3:00 PM 70.3 °F 38.8 °F 32% 30.09 in - West 9.2 mph - N/A   Unknown
4:00 PM 66.6 °F 36.7 °F 33% 30.11 in - WSW 8.1 mph 18.4 mph N/A   Unknown
5:00 PM 67.3 °F 36.7 °F 32% 30.13 in - WSW 8.1 mph - N/A   Unknown
6:00 PM 66 °F 37 °F 23% 30.14 in - WSW 8.1 mph - -  
6:00 PM 66.0 °F 37.0 °F 34% 30.14 in - WSW 8.1 mph - N/A   Unknown
7:00 PM 65.5 °F 38.1 °F 36% 30.14 in - WSW 6.9 mph - N/A   Unknown
8:00 PM 64.4 °F 38.8 °F 39% 30.13 in - WSW 8.1 mph - N/A   Unknown
9:00 PM 62.8 °F 39.9 °F 43% 30.14 in - WSW 3.5 mph - N/A   Unknown
10:00 PM 61.9 °F 39.7 °F 44% 30.15 in - WSW 4.6 mph - N/A   Unknown
11:00 PM 60.1 °F 40.8 °F 49% 30.17 in - SW 3.5 mph - N/A   Unknown